Regional Weather Roundup
Issued by NWS Grand Forks, ND

Home | Current Version | Previous Version | Text Only | Print | Product List | Glossary Off
Versions: 1 2 3 4 5 6 7 8 9 10 11 12 13 14 15 16 17 18 19 20 21 22 23 24 25 26 27 28 29 30 31 32 33 34 35 36 37 38 39 40 41 42 43 44 45 46 47 48 49 50

000
ASUS43 KFGF 191610
RWRFGF
PRAIRIE TO PINES  WEATHER ROUNDUP
NATIONAL WEATHER SERVICE EASTERN NORTH DAKOTA/GRAND FORKS ND
1100 AM CDT WED JUL 19 2017

 **SATELLITE DATA USED TO AUGMENT SKY COVER AT AUTOMATED STATIONS**
 *****  WEATHER ACROSS EASTERN NORTH DAKOTA  *****

CITY           SKY/WX    TMP DP  RH WIND       PRES   REMARKS
GRAND FORKS    CLOUDY    69  62  78 S13       29.95F
GRAND FRKS AFB PTSUNNY   67  60  77 S13       29.97S
DEVILS LAKE    FAIR      70  59  68 S15       29.93F
FARGO          FAIR      70  61  73 S15       30.06R
WAHPETON ARPT  FAIR      66  61  82 CALM      30.06R
$$

 ***** WEATHER ACROSS CENTRAL AND WESTERN NORTH DAKOTA  *****

CITY           SKY/WX    TMP DP  RH WIND       PRES   REMARKS
BISMARCK       LGT RAIN  66  62  87 S12       29.96F
MINOT          FAIR      73  62  68 SW9       29.87F
JAMESTOWN      CLOUDY    64  61  90 S15G23    29.97F
MINOT AFB      FAIR      72  62  71 NE7       29.86
GARRISON         N/A     67  65  93 S14       29.88F
WILLISTON      FAIR      74  65  73 S8        29.89F
DICKINSON      CLOUDY    65  60  84 S15       30.00S
HETTINGER      CLOUDY    66  56  70 E14       30.04R
$$

 *****  OTHER AIRPORT OBSERVATIONS IN OUR AREA  *****

CITY           SKY/WX    TMP DP  RH WIND       PRES   REMARKS
WALHALLA       NOT AVBL
GRAFTON AIRPOR FAIR      68  61  77 N5        30.01R
VALLEY CITY AR LGT RAIN  64  64 100 SW12      30.09R
CANDO          NOT AVBL
CAVALIER APRT  FAIR      61  59  94 N7        30.03R THUNDER
GWINNER        PTSUNNY   64  63  94 CALM      30.11R FOG
SHEYENNE NWR     N/A     66  64  93 NW3       29.95S
ROLLA            N/A     59  59 100 E22       29.93F
 ***** THE ABOVE OBSERVATIONS ARE NON NWS ARE NOT QUALITY
       CONTROLLED AND MAY MIS-REPORT RAIN FOR SNOW...
$$

  *****  WEATHER ACROSS NORTHERN MINNESOTA  *****

CITY           SKY/WX    TMP DP  RH WIND       PRES   REMARKS
FLAG ISLAND    FAIR      66  52  59 SE6       30.02F
WARROAD        FAIR      66  63  88 E5        30.03F
ROSEAU         FAIR      68  61  77 E3        30.02S
HALLOCK        FAIR      66  63  88 NW6       30.02R
THF RVR FALLS  FAIR      71  59  65 S10       30.01F
BAUDETTE       FAIR      68  58  70 E7        30.03F
WASKISH        CLOUDY    73  61  64 S6        30.03S
CROOKSTON      FAIR      70  61  73 S12       30.00S
STEPHEN NDAWN    N/A    N/A N/A N/A S5          N/A
GREENBUSH NDAW   N/A    N/A N/A N/A N3          N/A
$$
  *****  WEATHER ACROSS CENTRAL AND WEST MINNESOTA  *****

CITY           SKY/WX    TMP DP  RH WIND       PRES   REMARKS
FOSSTON        FAIR      70  57  64 S7        30.04S
BEMIDJI        FAIR      73  58  59 S8        30.06F
PARK RAPIDS    FAIR      74  54  49 SE13      30.07F
ELBOW LAKE     FAIR      70  59  68 SE7       30.06R
WADENA         FAIR      73  57  56 SE9       30.07F
DETROIT LAKES  FAIR      70  55  60 S9        30.08S
MOORHEAD       FAIR      70  61  73 S8        30.07R
FERGUS FALLS   FAIR      70  61  73 SE5       30.06R
MORRIS MN      FAIR      73  61  64 SE10      30.04R
STAPLES        FAIR      73  52  46 SE7       30.08S
$$
  *****  WEATHER ELSEWHERE ACROSS MINNESOTA  *****

CITY           SKY/WX    TMP DP  RH WIND       PRES   REMARKS
DULUTH         FAIR      75  56  51 SE3       30.10F
INTRNTL FALLS  FAIR      69  57  65 E6        30.05F
ELY            FAIR      72  54  53 S3        30.08F
CLOQUET        FAIR      75  52  43 SE3       30.11F
WHEATON        FAIR      70  57  64 S3        30.08R
BRAINERD       FAIR      76  56  49 S8        30.09F
HIBBING        FAIR      73  57  57 SW6       30.08F
ALEXANDRIA     FAIR      73  60  63 SE13      30.09R
SAINT CLOUD    FAIR      75  61  61 SE9       30.08F
MINNEAPOLIS    FAIR      79  58  48 SE10      30.10S
$$

  *****  WEATHER ACROSS SOUTH DAKOTA  *****

CITY           SKY/WX    TMP DP  RH WIND       PRES   REMARKS
SIOUX FALLS    PTSUNNY   82  75  79 SE16      29.97F
BROOKINGS      FAIR      79  71  76 S17G28    29.98F
WATERTOWN      FAIR      75  70  84 E7        30.00R
HURON          FAIR      82  73  74 SE24G32   29.87F
SISSETON         N/A     68  64  87 CALM      30.08R
ABERDEEN       TSTM      64  63  96 NW15G26   30.13R FOG
MITCHELL       FAIR      83  74  74 SE23G30   29.92F
PIERRE         CLOUDY    77  65  66 NE18G28   29.95R
MOBRIDGE       CLOUDY    68  62  81 E16G26    29.96S
RAPID CITY     FAIR      88  64  44 S15       29.92F
$$

  *****  SOME WEATHER IN NEARBY STATES *****

CITY           SKY/WX    TMP DP  RH WIND       PRES   REMARKS
GLASGOW MT     FAIR      79  51  37 CALM      29.94R
GREAT FALLS MT FAIR      81  39  22 NW12      30.05R
CHEYENNE WY    FAIR      86  45  23 SW8       30.22F
SCOTTSBLUFF NE FAIR      83  65  54 E12       30.06F
OMAHA NE       FAIR      87  72  60 S18       30.01F HX  93
DES MOINES IA  FAIR      85  71  63 S10       30.06F HX  90
DAVENPORT IA   FAIR      82  74  76 CALM      30.11F
CHICAGO IL     PTSUNNY   84  70  62 N6        30.10F
EAU CLAIRE WI  FAIR      78  56  46 SE8       30.12S
LA CROSSE WI   FAIR      83  61  47 SE8       30.12R
$$

  *****  SOME NATIONAL WEATHER *****

CITY           SKY/WX    TMP DP  RH WIND       PRES   REMARKS
LA GUARDIA NY  FAIR      91  61  36 W12       30.02F HX  91
RALEIGH NC     FAIR      87  64  46 NE3       30.12F
ATLANTA GA     PTSUNNY   88  71  57 NW12      30.18S HX  94
NEW ORLEANS LA FAIR      88  76  67 NW6       30.14S HX  99
OKLAHOMA CITY  FAIR      91  70  49 S15       30.13S HX  96
ALBUQUERQUE NM FAIR      79  58  48 W7        30.30S
SALT LAKE CITY PTSUNNY   88  57  34 S14G24    30.06R
LOS ANGELES CA FAIR      73  66  78 VRB5      29.99R
BOISE ID       FAIR      78  42  27 W6        30.03S
SEATTLE WA     FAIR      60  51  72 SW6       30.13S
$$

*** WEATHER ACROSS MANITOBA...SASKATCHEWAN AND ONTARIO ***
                ***ONTARIO***

CITY           SKY/WX    TMP DP  RH WIND       PRES   REMARKS
GERALDTON      PTSUNNY   68  57  68 W3        30.01F
THUNDER BAY    MOSUNNY   73  57  56 NW9G18    30.03F
SIOUX LOOKOUT  MOSUNNY   66  54  63 SW6       30.04F
TORONTO        PTSUNNY   82  61  47 W9        30.02S
BIG TROUT LK   CLOUDY    63  46  55 W9        29.89F
PICKLE LAKE    MOSUNNY   66  46  48 SW5       30.01F
DRYDEN         SUNNY     66  45  45 S7        30.07R
KENORA         NOT AVBL
$$
                *** MANITOBA***

CITY           SKY/WX    TMP DP  RH WIND       PRES   REMARKS
BRANDON        CLOUDY    68  55  64 S10       29.90F
DAUPHIN        CLOUDY    68  57  68 S6        29.86R
ISLAND LAKE    PTSUNNY   63  55  77 SW9       29.84F
PILOT MOUND      N/A     61  54  77 NE8         N/A
THE PAS        MOSUNNY   63  48  59 NW9       29.85F
THOMPSON       PTSUNNY   64  43  45 SW17      29.75F
WINNIPEG       CLOUDY    64  55  72 S7        29.93F
LYNN LAKE      MOSUNNY   61  37  41 W10G22    29.74F
CHURCHILL      MOSUNNY   64  41  42 W18G31    29.56F
GILLAM         MOSUNNY   64  43  45 W13G18    29.73F
$$
                ***SASKATCHEWAN***

CITY           SKY/WX    TMP DP  RH WIND       PRES   REMARKS
ESTEVAN        CLOUDY    66  63  88 SE6       29.91S
KINDERSLEY     MOSUNNY   64  50  59 NE6       29.98S
LLOYDMINSTER   MOSUNNY   63  54  72 W6        29.96F
PRINCE ALBERT  MOSUNNY   59  52  77 NW8       29.96R
REGINA         CLOUDY    70  50  49 N15       29.92S
YORKTON        SUNNY     64  54  68 VRB3      29.88R
N. BATTLEFORD  SUNNY     59  54  82 N6        29.99S
LA RONGE       MOSUNNY   63  48  59 W8        29.87F
SASKATOON      MOSUNNY   63  50  63 NW5       29.98S
SWIFT CURRENT  SUNNY     68  48  49 NE14      29.97R
$$
NOTE: THESE ARE AUTOMATED STATIONS WITH LIMITED QUALITY CONTROL
      "FAIR" INDICATES FEW OR NO CLOUDS BELOW 12,000 FEET WITH NO
      SIGNIFICANT WEATHER AND/OR OBSTRUCTIONS TO VISIBILITY.
      SKY/WX - SKY CONDITION AND SIGNIFICANT WEATHER.
      TMP - AIR TEMPERATURE.    DP   - DEWPOINT TEMPERATURE.
      RH  - RELATIVE HUMIDITY.  PRES - PRESSURE.
      HX  - HEAT INDEX.         WCI  - WIND CHILL INDEX.
$




USA.gov is the U.S. government's official web portal to all federal, state and local government web resources and services.